Location: Bégole
(43.1574°N, 0.3291°E)
Time: 13:01:42
(UTC+00:00)

SMAP - Pass Details

Date: 28 January 2023
Orbit: 681 x 683 km, 98.1° (Epoch: 19 March)

Event Time Altitude Azimuth Distance (km) Brightness Sun altitude
Rises 17:30:39 0° 171° (S) 3,032 6.6 -5.1°
Reaches altitude 10° 17:32:54 10° 174° (S) 2,122 5.8 -5.5°
Maximum altitude 17:37:31 70° 258° (WSW) 730 3.5 -6.3°
Drops below altitude 10° 17:42:12 10° 342° (NNW) 2,139 5.6 -7.1°
Sets 17:44:28 0° 345° (NNW) 3,059 6.4 -7.5°
